Location: ??????
(41.3164°N, 22.6615°E)
Time: 11:04:31
(UTC+00:00)

Gbstr 26 Del rocket - Pass Details

Date: 16 October 2021
Orbit: 492 x 1263 km, 51.8° (Epoch: 02 December)

Event Time Altitude Azimuth Distance (km) Brightness Sun altitude
Rises 17:49:23 0° 304° (NW) 3,855 8.2 -23.7°
Reaches altitude 10° 17:51:58 10° 307° (NW) 2,989 7.4 -24.2°
Maximum altitude 17:59:25 69° 31° (NNE) 1,298 4.4 -25.6°
Enters shadow 18:01:30 51° 92° (E) 1,521 4.5 -26.0°
